Starlink 30586

operational
NORAD ID: 58084 Int'l Des: 2023-160 Owner: SPXS Country: US Constellation: starlink
LEOCIRCULAR

关于 Starlink 30586

正在加载描述...

实时位置

正在加载3D地球...

即将过境

高度历史

Altitude vs Time

uPlot chart will show altitude changes over time

两行轨道根数

1 58084U 23160K 25353.48927312 .00000150 00000-0 26218-4 0 9990
2 58084 43.0024 156.0447 0001646 274.7433 85.3222 15.02534590120856
Epoch: Dec 19, 2025 • Age: 9 hours

当前状态

高度 564.3 km
速度 7.58 km/s
星下点 -23.86°S, 36.7°W
发射日期 Oct 18, 2023
运行时间 2.1 years
类型 internet

技术详情

分类 Payload
质量 730.00 kg
干质量 700.00 kg
总质量 730.00 kg
长度 0.30 m
直径 4.10 m
跨度 29.00 m
形状 Box + pan
制造商 SPXS
平台类型 Starlink V2M
阶段状态 In Orbit
所有者/国家 SPXS/US

大型星座

Loading constellations...